Voltar ao catálogo

STARLINK-4137

AtivoComunicaçõesVLEO
NORAD 53031·PAYLOAD·🇺🇸 United States

Lançado Jul 7, 2022 de Cape Canaveral Space Force Station

Loading…

Próximas Passagens (próximas 24 horas)

TLE

AtualizadoSource: CelesTrak SupGP

Época: Sep 14, 2026, 22:15 UTC

1 53031C 22076AX  26257.92756944  .00103410  00000+0  29561-2 0  2577
2 53031  53.1575 296.1656 0001116  89.8230 277.5458 15.35372360    18

Acompanhe STARLINK-4137 em tempo real com AllMySat

Download on the App Store